Regional Weather Roundup
Issued by NWS

Home | Current Version | Previous Version | Text Only | Print | Product List | Glossary Off
Versions: 1 2 3 4 5 6 7 8 9 10 11 12 13 14 15 16 17 18 19 20 21 22 23 24 25 26 27 28 29 30 31 32 33 34 35 36 37 38 39 40 41 42 43 44 45 46 47 48 49 50

000
ASUS45 KPSR 011410
RWRAZ

ARIZONA HOURLY REGIONAL WEATHER ROUNDUP
NATIONAL WEATHER SERVICE PHOENIX AZ
700 AM MST TUE SEP 01 2015

NOTE: FAIR INDICATES FEW OR NO CLOUDS BELOW 12,000 FEET WITH NO
SIGNIFICANT WEATHER AND/OR OBSTRUCTIONS TO VISIBILITY.

AZZ001>003-036-011500-
NORTHWEST ARIZONA

CITY           SKY/WX    TMP DP  RH WIND       PRES   REMARKS
BULLHEAD CITY  CLEAR     84  50  30 CALM      29.86R
KINGMAN        CLEAR     74  48  39 CALM      30.04R
$$

AZZ004>008-015-016-018-011500-
NORTH CENTRAL ARIZONA

CITY           SKY/WX    TMP DP  RH WIND       PRES   REMARKS
GRAND CANYON   SUNNY     53  51  93 CALM      30.27
WILLIAMS       SUNNY     55  52  88 SE5       30.32R
PRESCOTT       MOSUNNY   60  56  86 CALM      30.17R
FLAGSTAFF      MOSUNNY   54  51  90 CALM      30.30R
PAYSON         MOSUNNY   59  57  94 CALM      30.19S
PAGE           SUNNY     70  55  59 SW3       30.11R
$$

AZZ009>014-017-011500-
NORTHEAST ARIZONA

CITY           SKY/WX    TMP DP  RH WIND       PRES   REMARKS
WINSLOW        MOSUNNY   60  57  89 E6        30.18R
SAINT JOHNS    CLOUDY    61  55  81 SE5       30.24R
WINDOW ROCK    CLOUDY    58  51  78 NW3       30.30R
SHOW LOW       PTSUNNY   54  50  87 NE5       30.28R
$$

AZZ023-011500-
GREATER PHOENIX AREA

CITY           SKY/WX    TMP DP  RH WIND       PRES   REMARKS
PHOENIX        PTSUNNY   80  69  69 CALM      29.90R
BUCKEYE        MOSUNNY   82  63  51 NE10      29.90R
GLENDALE       MOSUNNY   81  64  57 CALM      29.92R
LUKE AFB       MOSUNNY   80  66  62 N3        29.91R
DEER VALLEY    MOSUNNY   79  64  60 N3        29.93R
SCOTTSDALE     MOSUNNY   77  66  68 W3        29.94R
MESA-FALCON    PTSUNNY   75  64  69 N12       29.91S
MESA-GATEWAY   PTSUNNY   75  68  78 CALM      29.94R
CHANDLER       PTSUNNY   77  68  73 CALM      29.92R
$$

AZZ027-028-011500-
SOUTHWEST MARICOPA COUNTY AND PINAL COUNTY

CITY           SKY/WX    TMP DP  RH WIND       PRES   REMARKS
CASA GRANDE    PTSUNNY   75  66  73 NE6       29.92R
GILA BEND      FAIR      84  62  48 E7        29.86R
$$

AZZ503-504-507>509-011500-
SOUTHEAST ARIZONA

CITY           SKY/WX    TMP DP  RH WIND       PRES   REMARKS
TUCSON         PTSUNNY   73  65  75 SE13      30.02R
DAVIS-MONTHAN  PTSUNNY   72  64  74 SE8       30.00R
RYAN FIELD     SUNNY     73  70  88 E5        30.00S
NOGALES        MOSUNNY   64  60  87 S6        30.11R
SIERRA VISTA   PTSUNNY   66  56  70 E1        30.16R
DOUGLAS        MOSUNNY   63  60  90 CALM      30.14R
SAFFORD        CLOUDY    69  66  90 SW3       30.07R
$$

AZZ020-021-025-026-031-011500-
SOUTHWEST ARIZONA

CITY           SKY/WX    TMP DP  RH WIND       PRES   REMARKS
YUMA           MOCLDY    86  75  69 S13       29.81R
$$

CAZ031-033-041-043-047-048-061-011500-
SOUTHERN CALIFORNIA

CITY           SKY/WX    TMP DP  RH WIND       PRES   REMARKS
DOWNTOWN L.A.  CLOUDY    72  60  66 CALM      29.91R
L.A. AIRPORT   CLOUDY    71  60  68 E8        29.91R
SAN DIEGO      CLOUDY    71  59  65 SE6       29.93R
BURBANK        CLOUDY    70  60  70 S3        29.92R
ONTARIO        CLOUDY    67  60  78 S6        29.93R
RIVERSIDE      CLOUDY    67  60  78 CALM      29.94R HAZE
PALM SPRINGS   CLEAR     76  52  43 NE5       29.85R
EL CENTRO NAS  MOCLDY    82  56  40 CALM      29.81R
IMPERIAL       PTCLDY    87  75  67 SE8       29.78R
BLYTHE         CLEAR     82  66  58 CALM      29.83R
NEEDLES        CLEAR     88  52  29 VRB3      29.87R
$$

NVZ020-UTZ003-011500-
SOUTHERN NEVADA-UTAH

CITY           SKY/WX    TMP DP  RH WIND       PRES   REMARKS
LAS VEGAS      CLEAR     83  40  21 S10       29.86R
SALT LAKE CITY MOSUNNY   76  45  33 SE15      29.98R
$$

NMZ009-TXZ055-011500-
NEW MEXICO-WEST TEXAS

CITY           SKY/WX    TMP DP  RH WIND       PRES   REMARKS
ALBUQUERQUE    MOSUNNY   70  48  45 S3        30.20R
EL PASO        MOSUNNY   77  48  35 NW3       30.06R
$$


........................KEY........................
SKY/WX - SKY CONDITION/WEATHER
TMP    - TEMPERATURE IN FAHRENHEIT
DP     - DEW POINT IN FAHRENHEIT
RH     - RELATIVE HUMIDITY IN PERCENT
WIND   - DIRECTION AND SPEED IN MILES PER HOUR (MPH)
VRB    - VARIABLE WIND DIRECTION
PRES   - MEAN SEA LEVEL PRESSURE IN INCHES OF MERCURY
         F - FALLING PRESSURE   R - RISING PRESSURE
         S - STEADY PRESSURE
VSB    - VISIBILITY IN MILES
HX     - HEAT INDEX IN FAHRENHEIT
WCI    - WIND CHILL INDEX IN FAHRENHEIT
TC     - TEMPERATURE IN CELSIUS WHICH IS ALSO KNOWN AS
         TEMPERATURE IN CENTIGRADE
AFB    - AIR FORCE BASE
         LUKE AFB IS LUKE AIR FORCE BASE
         DAVIS-MONTHAN IS DAVIS-MONTHAN AIR FORCE BASE
NAS    - NAVAL AIR STATION
         EL CENTRO NAS IS EL CENTRO NAVAL AIR STATION
N/A    - NOT AVAILABLE




USA.gov is the U.S. government's official web portal to all federal, state and local government web resources and services.